Stations météo

réclame
Mon MeteoGroup
Mte.Calamita, Italie (16197): Température de l'air & dewpoint: 17.04.2018 04:00:00 - 23.04.2018 04:00:00 (CEST)Mte.Calamita, Italie (16197): Vitesse du vent: 17.04.2018 04:00:00 - 23.04.2018 04:00:00 (CEST)Mte.Calamita, Italie (16197): Direction du vent: 17.04.2018 04:00:00 - 23.04.2018 04:00:00 (CEST)Mte.Calamita, Italie (16197): reduced air pressure: 17.04.2018 04:00:00 - 23.04.2018 04:00:00 (CEST)Mte.Calamita, Italie (16197): visibility: 17.04.2018 04:00:00 - 23.04.2018 04:00:00 (CEST)Mte.Calamita, Italie (16197): Ensoleillement: 17.04.2018 04:00:00 - 23.04.2018 04:00:00 (CEST)
Date & Time tt [°C] td [°C] ff [km/h] ff [knt] dd ppp [hPa] vv [km] sd [min]
23.04.2018 04:00:00 - - - - - - - -
23.04.2018 03:00:00 - - - - - - - -
23.04.2018 02:00:00 - - - - - - - -
23.04.2018 01:00:00 - - - - - - - -
23.04.2018 00:00:00 - - - - - - - -
22.04.2018 23:00:00 - - - - - - - -
22.04.2018 22:00:00 - - - - - - - -
22.04.2018 21:00:00 - - - - - - - -
22.04.2018 20:00:00 20,0 14,4 8 4 N 1017,1 30 48
22.04.2018 19:00:00 21,0 14,0 5 3 N - 10 -
22.04.2018 18:00:00 22,0 16,0 5 3 NNW - 10 -
22.04.2018 17:00:00 21,6 14,7 5 3 WNW 1017,3 30 60
22.04.2018 16:00:00 21,0 16,0 8 4 WNW - 10 -
22.04.2018 15:00:00 21,0 16,0 9 5 WNW - 10 -
22.04.2018 14:00:00 21,0 11,6 8 4 W 1018,1 30 60
22.04.2018 13:00:00 21,0 13,0 8 4 NNE - 10 -
22.04.2018 12:00:00 20,0 13,0 8 4 WNW - 10 -
22.04.2018 11:00:00 19,8 11,8 11 6 WSW 1018,0 30 60
22.04.2018 10:00:00 19,0 12,0 9 5 WSW - 10 -
22.04.2018 09:00:00 17,0 10,0 9 5 SSE - 10 -
22.04.2018 08:00:00 16,6 8,6 8 4 S 1017,6 20 30
22.04.2018 07:00:00 16,0 8,0 9 5 S - 10 -
22.04.2018 06:00:00 - - - - - - - -
22.04.2018 05:00:00 - - - - - - - -
22.04.2018 04:00:00 - - - - - - - -
22.04.2018 03:00:00 - - - - - - - -
22.04.2018 02:00:00 - - - - - - - -
22.04.2018 01:00:00 - - - - - - - -
22.04.2018 00:00:00 - - - - - - - -
21.04.2018 23:00:00 - - - - - - - -
21.04.2018 22:00:00 - - - - - - - -
21.04.2018 21:00:00 - - - - - - - -
21.04.2018 20:00:00 20,6 8,6 8 4 NNW 1017,3 30 42
21.04.2018 19:00:00 23,0 11,0 8 4 N - 10 -
21.04.2018 18:00:00 24,0 11,0 5 3 NNW - 10 -
21.04.2018 17:00:00 23,0 10,4 8 4 WNW 1017,5 30 60
21.04.2018 16:00:00 23,0 11,0 9 5 W - 10 -
21.04.2018 15:00:00 23,0 12,0 11 6 NNW - 10 -
21.04.2018 14:00:00 22,2 11,9 8 4 WNW 1018,3 30 60
21.04.2018 13:00:00 23,0 10,0 11 6 N - 10 -
21.04.2018 12:00:00 23,0 11,0 13 7 N - 10 -
21.04.2018 11:00:00 22,0 10,8 16 9 ENE 1018,4 30 60
21.04.2018 10:00:00 20,0 10,0 21 11 NNE - 10 -
21.04.2018 09:00:00 17,0 9,0 13 7 N - 10 -
21.04.2018 08:00:00 16,4 8,4 13 7 NE 1019,0 30 18
21.04.2018 07:00:00 16,0 8,0 13 7 N - 10 -
21.04.2018 06:00:00 - - - - - - - -
21.04.2018 05:00:00 - - - - - - - -
21.04.2018 04:00:00 - - - - - - - -
21.04.2018 03:00:00 - - - - - - - -
21.04.2018 02:00:00 - - - - - - - -
21.04.2018 01:00:00 - - - - - - - -
21.04.2018 00:00:00 - - - - - - - -
20.04.2018 23:00:00 - - - - - - - -
20.04.2018 22:00:00 - - - - - - - -
20.04.2018 21:00:00 - - - - - - - -
20.04.2018 20:00:00 19,4 6,2 22 12 N 1019,1 30 24
20.04.2018 19:00:00 21,0 7,0 22 12 NNW - 10 -
20.04.2018 18:00:00 23,0 9,0 18 10 NNW - 10 -
20.04.2018 17:00:00 23,4 10,5 16 9 WNW 1019,4 30 60
20.04.2018 16:00:00 24,0 11,0 15 8 WNW - 10 -
20.04.2018 15:00:00 24,0 11,0 15 8 NNW - 10 -
20.04.2018 14:00:00 23,6 11,0 15 8 N 1021,0 30 60
20.04.2018 13:00:00 23,0 10,0 15 8 E - 10 -
20.04.2018 12:00:00 22,0 10,0 16 9 N - 10 -
20.04.2018 11:00:00 20,2 9,5 16 9 ESE 1021,8 30 60
20.04.2018 10:00:00 19,0 10,0 15 8 NE - 10 -
20.04.2018 09:00:00 16,0 9,0 21 11 NNE - 10 -
20.04.2018 08:00:00 15,6 9,0 21 11 NE 1022,0 30 18
20.04.2018 07:00:00 17,0 10,0 18 10 NNE - 10 -
20.04.2018 06:00:00 - - - - - - - -
20.04.2018 05:00:00 - - - - - - - -
20.04.2018 04:00:00 - - - - - - - -
20.04.2018 03:00:00 - - - - - - - -
20.04.2018 02:00:00 - - - - - - - -
20.04.2018 01:00:00 - - - - - - - -
20.04.2018 00:00:00 - - - - - - - -
19.04.2018 23:00:00 - - - - - - - -
19.04.2018 22:00:00 - - - - - - - -
19.04.2018 21:00:00 - - - - - - - -
19.04.2018 20:00:00 17,6 9,3 15 8 N 1023,9 20 42
19.04.2018 19:00:00 21,0 11,0 9 5 WNW - 10 -
19.04.2018 18:00:00 21,0 11,0 11 6 N - 10 -
19.04.2018 17:00:00 20,4 11,3 11 6 WNW 1023,8 20 60
19.04.2018 16:00:00 21,0 12,0 9 5 WNW - 10 -
19.04.2018 15:00:00 21,0 12,0 15 8 W - 10 -
19.04.2018 14:00:00 20,8 12,8 18 10 W 1024,8 20 60
19.04.2018 13:00:00 20,0 11,0 15 8 NNW - 10 -
19.04.2018 12:00:00 20,0 11,0 18 10 E - 10 -
19.04.2018 11:00:00 18,4 10,5 18 10 ENE 1025,1 20 60
19.04.2018 10:00:00 16,0 10,0 24 13 N - 10 -
19.04.2018 09:00:00 15,0 9,0 26 14 N - 10 -
19.04.2018 08:00:00 14,0 8,6 22 12 N 1025,1 20 30
19.04.2018 07:00:00 14,0 8,0 24 13 N - 10 -
19.04.2018 06:00:00 - - - - - - - -
19.04.2018 05:00:00 - - - - - - - -
19.04.2018 04:00:00 - - - - - - - -
19.04.2018 03:00:00 - - - - - - - -
19.04.2018 02:00:00 - - - - - - - -
19.04.2018 01:00:00 - - - - - - - -
19.04.2018 00:00:00 - - - - - - - -
18.04.2018 23:00:00 - - - - - - - -
18.04.2018 22:00:00 - - - - - - - -
18.04.2018 21:00:00 - - - - - - - -
18.04.2018 20:00:00 17,4 10,8 26 14 NNE 1024,2 20 0
18.04.2018 19:00:00 19,0 11,0 24 13 E - 10 -
18.04.2018 18:00:00 20,0 10,0 18 10 N - 10 -
18.04.2018 17:00:00 20,2 11,7 22 12 N 1024,3 20 48
18.04.2018 16:00:00 21,0 11,0 21 11 NW - 10 -
18.04.2018 15:00:00 21,0 10,0 18 10 NNE - 10 -
18.04.2018 14:00:00 20,6 10,7 28 15 NNE 1024,5 20 0
18.04.2018 13:00:00 19,0 11,0 18 10 N - 10 -
18.04.2018 12:00:00 20,0 12,0 24 13 N - 10 -
18.04.2018 11:00:00 18,8 11,1 18 10 N 1024,2 20 60
18.04.2018 10:00:00 17,0 11,0 29 16 N - 10 -
18.04.2018 09:00:00 15,0 11,0 28 15 N - 10 -
18.04.2018 08:00:00 14,4 10,2 26 14 N 1023,7 20 18
18.04.2018 07:00:00 14,0 10,0 24 13 NNE - 10 -
18.04.2018 06:00:00 - - - - - - - -
18.04.2018 05:00:00 - - - - - - - -
18.04.2018 04:00:00 - - - - - - - -
18.04.2018 03:00:00 - - - - - - - -
18.04.2018 02:00:00 - - - - - - - -
18.04.2018 01:00:00 - - - - - - - -
18.04.2018 00:00:00 - - - - - - - -
17.04.2018 23:00:00 - - - - - - - -
17.04.2018 22:00:00 - - - - - - - -
17.04.2018 21:00:00 - - - - - - - -
17.04.2018 20:00:00 15,4 12,4 18 10 N 1020,6 10 0
17.04.2018 19:00:00 16,0 13,0 18 10 N - 10 -
17.04.2018 18:00:00 15,0 14,0 11 6 N - 10 -
17.04.2018 17:00:00 15,8 12,7 15 8 N 1020,4 2,0 0
17.04.2018 16:00:00 18,0 12,0 13 7 N - 10 -
17.04.2018 15:00:00 20,0 11,0 13 7 WNW - 10 -
17.04.2018 14:00:00 18,6 11,4 8 4 NNE 1019,9 10 60
17.04.2018 13:00:00 18,0 12,0 22 12 N - 10 -
17.04.2018 12:00:00 16,0 12,0 22 12 NW - 10 -
17.04.2018 11:00:00 15,2 12,3 15 8 N 1019,6 10 60
17.04.2018 10:00:00 13,0 12,0 22 12 NNW - 10 -
17.04.2018 09:00:00 13,0 12,0 26 14 N - 10 -
17.04.2018 08:00:00 12,4 11,5 13 7 N 1018,0 10 0
17.04.2018 07:00:00 13,0 11,0 11 6 N - 8 -
17.04.2018 06:00:00 - - - - - - - -
17.04.2018 05:00:00 - - - - - - - -
17.04.2018 04:00:00 - - - - - - - -

tt = Température de l'air
td = dewpoint
ff = Vitesse du vent
dd = Direction du vent
ppp = reduced air pressure
vv = visibility
sd = Ensoleillement

stations d'obs. à proximité